Time,TemperatureF,DewpointF,PressureIn,WindDirection,WindDirectionDegrees,WindSpeedMPH,WindSpeedGustMPH,Humidity,HourlyPrecipIn,Conditions,Clouds,dailyrainin,SoftwareType,DateUTC
2013-07-19 00:44:00,80.0,75.0,29.99,South,188,0.0,1.0,84,0.00,,,0.00,,2013-07-19 04:44:00,
2013-07-19 00:52:00,80.0,75.0,29.99,South,188,0.0,1.0,84,0.00,,,0.00,,2013-07-19 04:52:00,
2013-07-19 01:53:00,79.0,75.0,29.98,South,188,0.0,0.0,87,0.00,,,0.00,,2013-07-19 05:53:00,
2013-07-19 02:01:00,78.0,74.0,29.98,South,188,0.0,0.0,87,0.00,,,0.00,,2013-07-19 06:01:00,
2013-07-19 02:11:00,78.0,74.0,29.98,South,188,0.0,1.0,87,0.00,,,0.00,,2013-07-19 06:11:00,
2013-07-19 02:22:00,79.0,75.0,29.98,South,188,0.0,0.0,87,0.00,,,0.00,,2013-07-19 06:22:00,
2013-07-19 02:33:00,78.0,74.0,29.97,South,188,0.0,0.0,87,0.00,,,0.00,,2013-07-19 06:33:00,
2013-07-19 02:43:00,78.0,74.0,29.97,South,188,0.0,1.0,88,0.00,,,0.00,,2013-07-19 06:43:00,
2013-07-19 02:52:00,78.0,74.0,29.97,South,188,0.0,0.0,88,0.00,,,0.00,,2013-07-19 06:52:00,
2013-07-19 03:01:00,78.0,74.0,29.97,South,188,0.0,1.0,88,0.00,,,0.00,,2013-07-19 07:01:00,
2013-07-19 03:32:00,78.0,74.0,29.97,South,188,0.0,2.0,89,0.00,,,0.00,,2013-07-19 07:32:00,
2013-07-19 03:43:00,77.0,74.0,29.97,South,188,0.0,1.0,90,0.00,,,0.00,,2013-07-19 07:43:00,
2013-07-19 03:53:00,77.0,74.0,29.97,South,188,0.0,2.0,91,0.00,,,0.00,,2013-07-19 07:53:00,
2013-07-19 04:01:00,77.0,74.0,29.97,South,188,0.0,1.0,92,0.00,,,0.00,,2013-07-19 08:01:00,
2013-07-19 04:11:00,76.0,74.0,29.97,South,188,0.0,2.0,93,0.00,,,0.00,,2013-07-19 08:11:00,
2013-07-19 04:22:00,76.0,74.0,29.97,South,188,0.0,1.0,94,0.00,,,0.00,,2013-07-19 08:22:00,
2013-07-19 04:33:00,76.0,74.0,29.97,South,188,0.0,1.0,95,0.00,,,0.00,,2013-07-19 08:33:00,
2013-07-19 04:43:00,76.0,74.0,29.97,South,188,0.0,1.0,95,0.00,,,0.00,,2013-07-19 08:43:00,
2013-07-19 04:52:00,76.0,74.0,29.97,South,188,0.0,3.0,95,0.00,,,0.00,,2013-07-19 08:52:00,
2013-07-19 05:02:00,76.0,74.0,29.97,South,188,0.0,2.0,95,0.00,,,0.00,,2013-07-19 09:02:00,
2013-07-19 06:43:00,74.0,73.0,29.97,South,188,0.0,2.0,97,0.00,,,0.00,,2013-07-19 10:43:00,
2013-07-19 07:43:00,74.0,73.0,29.97,South,188,0.0,2.0,98,0.00,,,0.00,,2013-07-19 11:43:00,
2013-07-19 08:43:00,76.0,75.0,29.97,South,188,0.0,3.0,96,0.00,,,0.00,,2013-07-19 12:43:00,
2013-07-19 10:43:00,82.0,78.0,29.98,SW,228,0.0,2.0,87,0.00,,,0.00,,2013-07-19 14:43:00,
2013-07-19 10:52:00,82.0,77.0,29.98,SW,227,0.0,3.0,86,0.00,,,0.00,,2013-07-19 14:52:00,
2013-07-19 11:32:00,83.0,77.0,29.98,SW,225,0.0,2.0,82,0.00,,,0.00,,2013-07-19 15:32:00,
2013-07-19 11:43:00,83.0,75.0,29.98,SSW,212,0.0,4.0,77,0.00,,,0.00,,2013-07-19 15:43:00,
2013-07-19 11:52:00,83.0,74.0,29.98,SW,217,0.0,4.0,74,0.00,,,0.00,,2013-07-19 15:52:00,
2013-07-19 12:52:00,86.0,77.0,29.97,SW,214,1.0,7.0,75,0.00,,,0.00,,2013-07-19 16:52:00,
2013-07-19 13:43:00,85.0,77.0,29.96,SW,222,0.0,5.0,77,0.00,,,0.00,,2013-07-19 17:43:00,
2013-07-19 13:52:00,85.0,76.0,29.96,SW,223,0.0,4.0,75,0.00,,,0.00,,2013-07-19 17:52:00,
2013-07-19 16:43:00,87.0,75.0,29.89,SW,224,0.0,6.0,68,0.00,,,0.00,,2013-07-19 20:43:00,
2013-07-19 18:42:00,87.0,76.0,29.85,SW,219,0.0,4.0,70,0.00,,,0.00,,2013-07-19 22:42:00,
2013-07-19 18:52:00,87.0,75.0,29.85,SSW,198,0.0,4.0,68,0.00,,,0.00,,2013-07-19 22:52:00,
2013-07-19 19:43:00,85.0,75.0,29.85,South,179,0.0,3.0,73,0.00,,,0.00,,2013-07-19 23:43:00,
2013-07-19 19:52:00,85.0,76.0,29.85,South,180,0.0,2.0,74,0.00,,,0.00,,2013-07-19 23:52:00,
2013-07-19 20:01:00,85.0,76.0,29.85,South,180,0.0,1.0,75,0.00,,,0.00,,2013-07-20 00:01:00,
2013-07-19 20:11:00,85.0,76.0,29.85,South,180,0.0,2.0,75,0.00,,,0.00,,2013-07-20 00:11:00,
2013-07-19 20:22:00,84.0,76.0,29.86,South,180,0.0,2.0,77,0.00,,,0.00,,2013-07-20 00:22:00,
2013-07-19 20:32:00,84.0,76.0,29.86,South,180,0.0,1.0,78,0.00,,,0.00,,2013-07-20 00:32:00,
2013-07-19 20:43:00,84.0,77.0,29.85,South,180,0.0,0.0,79,0.00,,,0.00,,2013-07-20 00:43:00,
2013-07-19 20:52:00,83.0,76.0,29.86,South,180,0.0,0.0,80,0.00,,,0.00,,2013-07-20 00:52:00,
2013-07-19 21:01:00,83.0,76.0,29.86,South,180,0.0,2.0,80,0.00,,,0.00,,2013-07-20 01:01:00,
2013-07-19 21:11:00,82.0,75.0,29.86,South,180,0.0,1.0,80,0.00,,,0.00,,2013-07-20 01:11:00,
2013-07-19 21:22:00,82.0,75.0,29.86,South,180,0.0,2.0,80,0.00,,,0.00,,2013-07-20 01:22:00,
2013-07-19 21:32:00,82.0,75.0,29.86,South,180,0.0,2.0,80,0.00,,,0.00,,2013-07-20 01:32:00,
2013-07-19 21:52:00,81.0,74.0,29.86,South,180,0.0,3.0,80,0.00,,,0.00,,2013-07-20 01:52:00,
2013-07-19 22:02:00,81.0,74.0,29.86,SSE,160,0.0,4.0,80,0.00,,,0.00,,2013-07-20 02:02:00,
2013-07-19 22:11:00,81.0,74.0,29.86,SSE,153,0.0,2.0,80,0.00,,,0.00,,2013-07-20 02:11:00,
2013-07-19 22:33:00,80.0,74.0,29.87,SSE,153,0.0,1.0,82,0.00,,,0.00,,2013-07-20 02:33:00,
2013-07-19 22:43:00,80.0,74.0,29.87,SSE,153,0.0,2.0,83,0.00,,,0.00,,2013-07-20 02:43:00,